Wind_Speed
61 68 66 65 65 63 62 60 59 59 57 54 52 50 48 47 46 45 44 44 42 42 42 42 38 36 35 36 31 29 28 26 24 23 24 21 22 26 28 28 29 31 34
61 64 66 67 69 66 63 59 60 61 57 53 51 51 49 48 47 46 45 45 43 44 43 41 39 36 34 34 35 32 29 26 25 24 23 25 25 26 30 30 32 34 35
55 60 64 67 67 64 61 61 63 60 57 54 52 51 51 49 47 47 46 45 45 45 43 42 39 36 35 35 35 34 32 29 28 28 27 26 26 28 29 31 31 30 31
57 61 65 67 66 65 63 64 63 61 58 54 51 51 50 49 48 48 47 46 46 46 44 42 39 37 37 36 36 34 34 32 31 30 29 29 28 29 31 30 30 31 31
60 63 63 65 65 66 66 66 66 62 57 52 49 49 49 49 49 48 47 48 47 48 46 43 41 40 40 40 39 36 34 34 34 32 32 30 30 31 31 32 33 35 37
55 59 61 65 66 68 69 67 61 60 55 49 48 49 49 50 49 48 47 48 48 48 47 44 44 42 43 41 42 39 37 37 37 37 37 37 37 37 37 37 39 40 40
52 53 54 57 59 60 60 64 62 55 51 49 49 49 49 50 49 48 47 47 46 47 47 46 45 45 44 44 44 43 42 40 41 41 41 41 41 41 40 40 39 39 39
46 50 53 53 55 54 51 51 49 50 51 51 50 49 49 50 49 48 47 47 47 48 48 47 46 46 47 48 47 47 47 47 46 44 45 46 45 45 43 42 41 41 42
47 43 43 44 44 45 43 43 46 49 52 52 49 48 48 49 49 47 46 47 47 47 47 46 46 47 48 50 50 50 51 52 52 51 49 49 49 49 49 48 46 46 46
43 43 43 41 42 43 45 49 51 53 55 50 48 48 47 48 47 46 47 46 46 48 49 49 49 48 49 49 50 52 51 53 54 54 54 53 53 52 52 52 52 52 53
43 42 41 44 46 46 47 48 49 52 56 56 54 52 50 49 47 46 47 48 49 50 51 51 51 50 50 51 52 53 53 54 55 55 55 56 56 56 56 57 57 56 56
46 48 49 47 48 49 52 52 52 53 54 54 50 46 44 45 49 49 49 50 50 51 52 53 53 53 53 53 54 55 56 57 56 57 57 57 58 59 59 60 61 61 61
46 46 46 46 48 50 49 46 48 49 49 50 50 49 48 47 47 50 49 50 52 53 53 53 54 54 53 55 55 56 56 57 56 55 56 58 59 60 59 59 61 61 62
49 49 48 48 49 50 48 45 44 44 45 45 44 44 46 47 49 50 50 51 53 53 53 53 54 53 54 54 53 54 54 54 53 53 53 53 55 55 56 57 58 58 58
52 49 47 45 44 42 41 42 42 41 41 41 42 44 46 49 51 52 53 53 53 54 55 56 56 54 56 56 55 54 53 54 54 53 51 50 50 51 51 51 51 53 53
38 40 40 41 41 43 43 42 42 43 45 48 49 50 51 52 52 54 54 55 55 55 57 57 57 56 57 56 55 56 55 54 54 53 53 52 52 52 52 52 54 55 56
37 38 40 43 44 45 46 48 50 50 50 51 52 53 54 54 55 56 56 58 58 58 59 60 60 59 59 58 57 58 58 56 55 54 55 55 54 54 55 56 57 58 58
41 43 44 46 47 48 49 49 51 52 55 56 57 58 59 58 58 58 59 60 61 61 62 63 62 62 62 62 61 61 60 59 59 58 58 58 58 58 59 59 60 60 61
45 47 49 50 51 51 52 53 54 55 56 58 59 60 61 61 62 63 65 65 66 66 67 67 67 67 66 67 66 66 66 65 64 64 64 64 64 63 63 63 62 63 63
48 49 51 52 53 54 55 57 58 58 59 60 62 64 66 67 67 68 70 71 71 72 72 72 72 71 71 71 71 71 71 71 71 70 69 68 68 67 66 66 66 66 65
53 54 55 56 57 58 59 60 62 63 64 65 66 69 71 71 71 72 75 76 77 77 76 75 74 74 75 76 76 76 76 76 75 75 75 74 74 71 71 69 68 68 66
54 56 57 58 60 61 62 63 64 66 68 69 71 73 76 77 78 79 80 80 81 83 83 83 82 80 80 80 81 81 81 81 81 80 79 79 77 75 73 72 70 69 68
56 57 59 61 62 63 64 65 66 68 69 72 74 77 80 82 84 86 87 87 87 86 86 86 87 88 89 89 89 89 88 86 85 85 83 81 80 78 76 74 73 71 70
55 57 59 60 62 63 64 65 66 67 67 67 66 66 66 69 71 75 80 81 82 83 85 87 88 89 91 93 93 93 93 93 91 90 87 84 82 79 78 76 75 73 72
53 55 56 56 56 56 56 55 54 54 53 54 52 51 49 45 41 39 40 41 44 47 51 54 57 62 67 73 78 83 87 90 91 87 85 83 82 80 79 77 76 75 74
41 41 41 42 41 41 41 40 39 40 39 37 35 33 33 32 32 31 31 31 31 32 33 34 34 35 36 37 41 49 58 67 74 77 78 78 76 76 75 73 72 71 71
Wind_Direction
254 250 251 254 256 256 255 257 259 259 257 255 256 259 260 259 261 264 268 271 276 279 281 287 293 296 289 284 282 281 279 283 280 280 272 271 263 265 252 251 257 250 251
247 248 248 251 252 252 252 254 256 255 253 253 255 257 257 257 260 264 267 270 274 276 278 283 288 289 283 283 278 279 276 273 275 274 270 265 259 261 259 255 256 253 250
247 245 245 247 247 247 248 251 252 251 250 251 254 255 255 256 259 263 265 268 271 274 277 280 283 284 279 280 280 276 274 272 268 269 270 263 260 257 255 256 253 251 252
246 242 241 242 244 246 248 249 248 248 248 250 252 253 254 256 260 263 265 267 268 272 276 277 279 278 275 274 275 274 274 274 270 267 266 265 264 261 260 259 257 257 256
245 246 247 246 246 247 247 247 247 246 247 247 251 252 255 258 261 262 264 266 268 271 273 275 277 275 272 270 269 270 270 271 271 268 268 267 265 265 264 263 262 261 260
244 247 249 248 246 246 247 250 249 247 247 247 250 252 256 259 259 260 262 265 266 269 270 272 273 273 270 268 268 267 265 264 265 267 268 269 269 269 269 268 267 265 266
244 244 246 249 250 250 251 251 251 249 246 248 251 253 256 257 259 260 262 264 266 268 270 271 271 270 269 267 266 266 266 264 263 263 265 268 269 269 270 270 270 270 268
254 251 251 251 251 251 248 246 245 246 247 249 252 253 255 256 257 258 260 263 266 268 270 272 271 270 269 266 265 265 265 265 264 264 264 266 268 270 270 269 268 268 267
250 255 260 262 259 253 249 251 255 257 257 254 252 254 257 258 257 257 259 261 265 267 270 271 272 272 269 267 264 264 264 262 264 263 262 264 265 265 266 266 266 265 265
264 266 268 266 270 267 263 260 264 265 258 253 252 253 255 258 258 261 262 263 265 267 268 270 269 268 268 268 266 264 262 262 263 263 263 262 264 265 266 265 265 265 265
264 267 271 271 271 270 270 270 269 266 261 255 252 251 250 253 257 258 260 263 265 267 268 268 268 268 268 268 267 265 262 261 262 262 263 263 263 263 264 265 265 265 266
260 266 267 266 266 268 271 268 263 261 258 257 255 255 259 259 257 258 261 263 266 266 267 269 270 269 268 268 267 266 264 262 261 262 263 263 264 264 264 265 266 267 267
260 266 268 268 268 266 260 259 258 258 257 256 254 255 256 258 261 262 263 266 267 267 268 269 268 269 270 270 269 268 266 266 265 263 264 264 264 265 266 267 267 269 269
265 264 266 265 262 261 260 257 257 257 257 257 258 260 261 262 263 266 267 267 267 268 267 267 268 268 268 268 268 269 270 270 268 267 266 266 265 266 267 268 269 269 269
257 257 257 255 252 252 258 262 263 263 263 263 263 263 264 266 267 267 267 266 267 266 266 266 266 266 266 266 265 265 265 266 266 265 265 265 264 265 266 266 267 269 270
253 255 259 261 264 267 266 265 265 264 263 266 267 266 266 266 265 266 266 266 266 266 267 267 267 266 266 266 266 266 265 264 264 264 264 264 264 266 267 267 267 268 269
261 262 264 266 267 267 267 267 267 266 266 266 266 266 265 265 265 265 266 267 267 267 267 267 267 266 265 265 264 264 264 263 262 262 263 263 264 265 267 268 269 269 270
266 267 268 268 268 268 268 268 268 267 268 269 269 269 268 267 267 267 267 268 268 267 267 267 267 266 266 266 265 264 263 263 262 262 263 265 266 267 267 267 268 269 270
267 268 268 269 270 270 270 271 271 271 271 271 271 269 268 268 269 269 270 269 269 268 267 267 266 265 265 264 263 263 263 262 262 262 262 263 264 265 265 266 267 269 270
268 268 269 270 270 271 272 272 273 272 273 273 274 273 274 272 271 271 270 270 269 268 268 267 267 266 266 266 265 265 264 263 263 262 263 264 264 264 265 266 267 268 268
268 269 270 271 272 273 274 274 275 274 274 273 273 274 274 273 273 272 272 271 270 268 267 267 266 266 267 266 266 265 265 264 264 264 264 264 264 264 264 265 266 267 268
269 270 271 272 273 273 274 274 274 274 274 274 275 275 275 275 273 272 271 270 270 269 268 267 266 265 264 264 264 264 264 263 264 263 263 263 263 264 264 264 265 266 267
272 273 273 273 274 274 276 277 278 279 279 278 278 278 278 277 276 274 272 270 268 268 268 268 268 268 267 267 266 265 263 262 262 262 262 262 263 263 263 264 265 266 266
272 273 274 275 276 277 278 278 279 280 281 282 282 283 283 281 279 276 273 272 272 272 272 271 271 269 268 267 266 265 263 262 261 261 261 261 261 262 262 263 264 265 266
276 276 276 277 277 277 277 277 278 279 280 283 285 285 286 290 291 288 285 282 281 281 280 280 279 278 276 271 267 264 261 260 259 259 259 260 260 260 261 262 263 264 265
281 281 280 281 282 282 281 279 278 278 280 284 288 291 293 294 295 295 293 291 289 290 291 293 295 295 293 289 280 271 264 260 258 257 257 257 257 258 260 261 262 263 264
Height
5569 5574 5578 5581 5585 5588 5591 5593 5594 5596 5598 5598 5600 5602 5603 5604 5604 5604 5604 5603 5601 5600 5599 5596 5592 5590 5588 5586 5583 5580 5577 5575 5573 5571 5570 5570 5571 5571 5570 5572 5574 5575 5577
5553 5557 5561 5565 5568 5572 5575 5578 5580 5582 5583 5585 5587 5589 5590 5591 5591 5591 5591 5591 5589 5589 5587 5585 5582 5580 5579 5578 5575 5574 5571 5569 5567 5565 5565 5565 5565 5566 5567 5567 5568 5569 5570
5539 5542 5546 5549 5552 5555 5559 5563 5565 5568 5569 5571 5573 5575 5576 5577 5578 5578 5578 5578 5578 5577 5575 5574 5572 5570 5569 5569 5567 5565 5563 5562 5560 5559 5558 5558 5558 5559 5560 5560 5560 5561 5562
5525 5528 5531 5534 5536 5539 5543 5546 5549 5551 5553 5556 5559 5561 5562 5564 5565 5566 5565 5565 5565 5565 5564 5562 5560 5560 5560 5559 5558 5556 5555 5554 5553 5551 5551 5550 5551 5551 5552 5552 5553 5554 5554
5511 5514 5516 5519 5522 5524 5527 5530 5532 5535 5538 5541 5544 5547 5549 5550 5552 5552 5552 5553 5553 5553 5552 5550 5549 5549 5549 5548 5548 5546 5547 5545 5545 5543 5543 5543 5542 5543 5543 5544 5545 5545 5545
5495 5498 5501 5503 5506 5509 5512 5515 5517 5519 5522 5525 5529 5532 5535 5537 5538 5538 5538 5539 5539 5540 5539 5537 5537 5536 5536 5536 5537 5536 5535 5535 5535 5535 5534 5533 5532 5533 5534 5534 5534 5534 5535
5482 5484 5486 5489 5492 5494 5497 5499 5502 5505 5508 5511 5515 5518 5520 5522 5524 5524 5524 5525 5525 5526 5526 5525 5524 5524 5524 5525 5525 5525 5525 5525 5524 5525 5524 5523 5522 5522 5524 5523 5523 5523 5523
5470 5473 5475 5477 5479 5481 5483 5486 5489 5491 5494 5497 5500 5503 5505 5506 5508 5509 5510 5511 5511 5512 5512 5511 5511 5511 5511 5512 5512 5512 5513 5514 5513 5514 5513 5512 5512 5511 5512 5512 5512 5512 5513
5460 5461 5462 5464 5467 5469 5470 5473 5476 5479 5482 5484 5486 5488 5490 5493 5494 5494 5495 5496 5497 5498 5498 5498 5498 5498 5498 5499 5498 5497 5499 5499 5500 5500 5500 5500 5499 5499 5499 5501 5501 5501 5501
5448 5450 5452 5454 5457 5459 5460 5462 5464 5466 5468 5469 5472 5473 5476 5478 5480 5481 5482 5483 5483 5483 5484 5484 5483 5483 5483 5484 5485 5484 5483 5482 5484 5485 5486 5486 5486 5485 5484 5486 5486 5487 5488
5439 5441 5442 5444 5445 5448 5449 5450 5450 5452 5453 5454 5456 5457 5459 5462 5464 5465 5467 5469 5468 5470 5470 5469 5469 5468 5468 5468 5470 5471 5470 5466 5468 5469 5469 5470 5470 5470 5470 5469 5470 5471 5472
5428 5430 5431 5432 5434 5435 5436 5437 5437 5438 5439 5441 5442 5444 5446 5448 5450 5451 5451 5453 5453 5454 5453 5454 5454 5454 5453 5453 5454 5454 5454 5453 5452 5452 5453 5453 5453 5453 5453 5454 5454 5455 5456
5415 5415 5415 5418 5420 5421 5422 5422 5424 5425 5426 5427 5428 5430 5432 5433 5435 5436 5436 5437 5438 5438 5437 5437 5437 5437 5438 5438 5438 5439 5438 5437 5437 5435 5436 5435 5435 5436 5436 5436 5437 5437 5438
5403 5404 5405 5405 5406 5408 5409 5409 5410 5411 5413 5413 5414 5415 5417 5419 5420 5421 5420 5421 5422 5421 5420 5420 5421 5420 5421 5421 5420 5422 5423 5422 5421 5420 5419 5419 5419 5419 5419 5419 5420 5420 5421
5391 5392 5392 5393 5394 5395 5396 5397 5398 5398 5398 5399 5400 5402 5403 5404 5404 5404 5405 5404 5404 5404 5404 5403 5403 5402 5404 5404 5404 5403 5403 5404 5404 5404 5403 5403 5404 5404 5404 5404 5404 5404 5405
5380 5381 5381 5381 5382 5382 5383 5383 5383 5384 5385 5385 5385 5386 5386 5387 5387 5387 5387 5387 5387 5387 5386 5387 5386 5385 5385 5386 5386 5388 5387 5387 5388 5387 5387 5388 5388 5388 5388 5389 5389 5390 5390
5367 5367 5368 5368 5368 5369 5370 5370 5370 5370 5370 5370 5370 5369 5369 5370 5369 5369 5369 5369 5368 5369 5368 5368 5367 5367 5367 5367 5366 5368 5369 5370 5370 5370 5370 5370 5370 5370 5371 5371 5372 5372 5372
5353 5353 5353 5354 5354 5354 5354 5354 5354 5354 5353 5353 5352 5351 5351 5352 5351 5350 5350 5350 5349 5349 5348 5348 5347 5347 5347 5347 5348 5348 5349 5350 5351 5351 5350 5351 5351 5351 5351 5351 5352 5353 5354
5340 5339 5339 5339 5339 5338 5338 5337 5337 5336 5336 5334 5333 5332 5332 5333 5332 5330 5329 5330 5329 5328 5326 5327 5326 5325 5326 5326 5326 5327 5328 5328 5329 5330 5330 5330 5331 5332 5331 5331 5332 5333 5334
5325 5324 5323 5323 5322 5321 5321 5321 5320 5319 5318 5316 5314 5310 5309 5312 5311 5309 5307 5306 5307 5305 5302 5302 5302 5303 5303 5303 5303 5304 5305 5306 5306 5306 5307 5308 5309 5311 5310 5311 5312 5312 5313
5310 5309 5308 5307 5305 5304 5303 5301 5300 5299 5298 5297 5295 5290 5287 5288 5287 5285 5282 5280 5280 5280 5279 5277 5277 5277 5277 5277 5277 5278 5280 5282 5281 5282 5283 5283 5285 5288 5288 5289 5290 5290 5291
5293 5291 5290 5289 5287 5286 5284 5282 5280 5278 5276 5274 5272 5268 5262 5262 5261 5260 5257 5254 5251 5249 5248 5248 5249 5249 5249 5249 5249 5250 5252 5255 5255 5254 5255 5257 5259 5263 5264 5266 5267 5268 5269
5275 5274 5272 5270 5268 5266 5264 5261 5258 5255 5252 5249 5246 5243 5238 5233 5230 5227 5225 5224 5222 5221 5220 5218 5218 5219 5218 5218 5217 5219 5221 5225 5225 5225 5228 5230 5234 5237 5239 5242 5243 5245 5246
5258 5255 5253 5251 5248 5245 5243 5240 5237 5233 5230 5227 5222 5218 5212 5206 5200 5195 5192 5190 5190 5190 5189 5187 5186 5185 5184 5183 5183 5183 5186 5189 5192 5196 5199 5202 5207 5210 5214 5217 5220 5221 5223
5239 5237 5234 5231 5228 5225 5222 5219 5217 5214 5212 5208 5204 5199 5194 5188 5181 5175 5171 5169 5167 5166 5164 5161 5158 5154 5150 5146 5145 5145 5148 5152 5158 5163 5168 5173 5178 5182 5187 5191 5195 5197 5200
5222 5220 5217 5214 5211 5208 5205 5203 5200 5199 5196 5193 5189 5184 5179 5174 5170 5165 5162 5159 5156 5152 5149 5146 5142 5136 5130 5123 5119 5118 5119 5122 5127 5133 5139 5145 5151 5156 5161 5165 5169 5173 5176